EW4538 Weather Reports


time (UTC)temp
C
wind
direction
speed
KPH
gust
KPH
rain 1hr
cm
rain 24hr
cm
rain mn
cm
humidity
%
barometer
mb
20220930145814 21 159 12.9 22.5 0.00 0.00 0.00 41 1021.2
20220930144314 20 138 11.3 22.5 0.00 0.00 0.00 42 1021.1
20220930143814 20 145 16.1 22.5 0.00 0.00 0.00 42 1021.2
20220930143314 20 159 11.3 20.9 0.00 0.00 0.00 42 1021.2
20220930142813 20 136 14.5 29.0 0.00 0.00 0.00 43 1021.2
20220930142314 20 117 14.5 29.0 0.00 0.00 0.00 44 1021.2
20220930141814 19 169 11.3 22.5 0.00 0.00 0.00 43 1021.2
20220930140814 19 137 12.9 24.1 0.00 0.00 0.00 44 1021.2
20220930140314 19 160 11.3 22.5 0.00 0.00 0.00 45 1021.2
20220930135814 19 124 11.3 22.5 0.00 0.00 0.00 46 1021.2
20220930134814 18 151 16.1 27.4 0.00 0.00 0.00 46 1021.1
20220930133314 18 155 9.7 20.9 0.00 0.00 0.00 48 1021.0
20220930132814 18 136 11.3 32.2 0.00 0.00 0.00 48 1021.1
20220930131814 18 128 11.3 19.3 0.00 0.00 0.00 49 1021.0
20220930131313 17 130 6.4 19.3 0.00 0.00 0.00 49 1021.0
20220930130814 17 122 9.7 16.1 0.00 0.00 0.00 49 1021.0
20220930130314 17 113 4.8 16.1 0.00 0.00 0.00 50 1021.1
20220930125813 17 104 4.8 9.7 0.00 0.00 0.00 50 1021.0
20220930124815 17 119 6.4 12.9 0.00 0.00 0.00 50 1021.0
20220930123813 17 109 6.4 12.9 0.00 0.00 0.00 50 1020.9
20220930122313 17 134 4.8 16.1 0.00 0.00 0.00 51 1020.9
20220930121814 17 105 9.7 16.1 0.00 0.00 0.00 50 1020.9
20220930120814 17 103 3.2 12.9 0.00 0.00 0.00 51 1020.9
20220930115813 17 125 3.2 12.9 0.00 0.00 0.00 51 1020.9
20220930114814 17 150 4.8 9.7 0.00 0.00 0.00 51 1020.9
20220930114314 17 94 3.2 12.9 0.00 0.00 0.00 51 1020.8
20220930113813 17 117 6.4 16.1 0.00 0.00 0.00 50 1020.8
20220930111814 18 93 6.4 19.3 0.00 0.00 0.00 51 1020.6
20220930111314 18 115 4.8 19.3 0.00 0.00 0.00 51 1020.6
20220930110813 18 78 9.7 19.3 0.00 0.00 0.00 51 1020.6
20220930110314 18 88 4.8 19.3 0.00 0.00 0.00 50 1020.6
20220930104313 18 128 9.7 20.9 0.00 0.00 0.00 49 1020.5
20220930103814 18 137 14.5 20.9 0.00 0.00 0.00 49 1020.5
20220930103313 18 144 14.5 20.9 0.00 0.00 0.00 49 1020.5
20220930102814 18 123 4.8 22.5 0.00 0.00 0.00 49 1020.4
20220930101313 19 99 11.3 27.4 0.00 0.00 0.00 50 1020.4
20220930100813 19 139 9.7 27.4 0.00 0.00 0.00 50 1020.4
20220930100314 19 128 12.9 20.9 0.00 0.00 0.00 50 1020.4
20220930095314 19 129 8.0 20.9 0.00 0.00 0.00 50 1020.3
20220930094814 20 79 6.4 22.5 0.00 0.00 0.00 50 1020.3
20220930093814 20 59 12.9 24.1 0.00 0.00 0.00 49 1020.2
20220930093313 20 124 14.5 24.1 0.00 0.00 0.00 49 1020.2
20220930092814 20 107 14.5 27.4 0.00 0.00 0.00 48 1020.1
20220930091313 21 133 16.1 33.8 0.00 0.00 0.00 47 1020.1
20220930090314 21 124 19.3 40.2 0.00 0.00 0.00 46 1020.0
20220930085313 21 134 32.2 40.2 0.00 0.00 0.00 45 1019.9
20220930084313 21 119 25.7 40.2 0.00 0.00 0.00 45 1019.9
20220930083813 21 117 22.5 40.2 0.00 0.00 0.00 45 1020.0
20220930083313 21 127 19.3 32.2 0.00 0.00 0.00 46 1020.0
20220930082313 21 122 22.5 38.6 0.00 0.00 0.00 46 1020.1
20220930081814 21 141 16.1 35.4 0.00 0.00 0.00 46 1020.1
20220930080313 21 126 17.7 35.4 0.00 0.00 0.00 46 1020.2
20220930075813 22 124 27.4 35.4 0.00 0.00 0.00 45 1020.3
20220930075314 22 144 17.7 27.4 0.00 0.00 0.00 45 1020.2
20220930074313 22 136 19.3 38.6 0.00 0.00 0.00 45 1020.1
20220930072813 22 134 20.9 32.2 0.00 0.00 0.00 44 1020.1
20220930072313 22 128 19.3 32.2 0.00 0.00 0.00 44 1020.0
20220930070813 22 123 20.9 32.2 0.00 0.00 0.00 43 1020.1
20220930065814 22 118 20.9 32.2 0.00 0.00 0.00 43 1020.0
20220930065313 23 127 19.3 35.4 0.00 0.00 0.00 42 1020.0
20220930064313 23 126 16.1 35.4 0.00 0.00 0.00 42 1020.0
20220930063313 23 127 16.1 29.0 0.00 0.00 0.00 42 1020.0
20220930062813 23 121 20.9 32.2 0.00 0.00 0.00 41 1020.0
20220930061813 23 134 22.5 38.6 0.00 0.00 0.00 41 1020.0
20220930060314 23 99 19.3 29.0 0.00 0.00 0.00 41 1020.2
20220930055813 23 123 20.9 27.4 0.00 0.00 0.00 40 1020.2
20220930055313 23 132 17.7 29.0 0.00 0.00 0.00 40 1020.2
20220930054814 23 106 22.5 29.0 0.00 0.00 0.00 40 1020.3
20220930053813 23 124 20.9 33.8 0.00 0.00 0.00 40 1020.3
20220930053313 23 121 16.1 29.0 0.00 0.00 0.00 40 1020.3
20220930052813 24 117 20.9 29.0 0.00 0.00 0.00 39 1020.4
20220930052314 24 142 14.5 24.1 0.00 0.00 0.00 39 1020.5
20220930051813 24 121 14.5 24.1 0.00 0.00 0.00 39 1020.5
20220930051313 24 124 16.1 24.1 0.00 0.00 0.00 39 1020.5
20220930050835 24 120 17.7 32.2 0.00 0.00 0.00 39 1020.5
20220930050314 24 134 16.1 32.2 0.00 0.00 0.00 39 1020.5
20220930045313 24 123 17.7 29.0 0.00 0.00 0.00 39 1020.4
20220930044313 24 131 19.3 27.4 0.00 0.00 0.00 39 1020.5
20220930043813 24 142 16.1 29.0 0.00 0.00 0.00 39 1020.5
20220930042813 25 127 17.7 32.2 0.00 0.00 0.00 39 1020.6
20220930041813 25 122 19.3 32.2 0.00 0.00 0.00 38 1020.6
20220930041313 25 126 17.7 29.0 0.00 0.00 0.00 38 1020.5
20220930040313 25 139 19.3 32.2 0.00 0.00 0.00 38 1020.6
20220930035813 25 138 14.5 32.2 0.00 0.00 0.00 38 1020.5
20220930034814 25 134 19.3 29.0 0.00 0.00 0.00 37 1020.4
20220930034313 25 130 19.3 27.4 0.00 0.00 0.00 37 1020.4
20220930033813 25 121 20.9 29.0 0.00 0.00 0.00 36 1020.5
20220930032813 26 130 22.5 33.8 0.00 0.00 0.00 36 1020.3
20220930032313 26 130 20.9 33.8 0.00 0.00 0.00 36 1020.3
20220930031813 26 129 16.1 29.0 0.00 0.00 0.00 36 1020.3
20220930031313 26 134 14.5 27.4 0.00 0.00 0.00 36 1020.3
20220930030312 26 127 19.3 27.4 0.00 0.00 0.00 36 1020.2
20220930025814 26 130 17.7 24.1 0.00 0.00 0.00 35 1020.2
20220930025312 26 141 14.5 20.9 0.00 0.00 0.00 35 1020.1
20220930024813 26 140 11.3 20.9 0.00 0.00 0.00 35 1020.1
20220930024313 26 138 11.3 22.5 0.00 0.00 0.00 34 1020.1
20220930023813 26 120 16.1 29.0 0.00 0.00 0.00 34 1020.1
20220930022812 27 125 19.3 29.0 0.00 0.00 0.00 33 1020.0
20220930022313 27 123 20.9 29.0 0.00 0.00 0.00 34 1019.9
20220930021813 26 135 19.3 29.0 0.00 0.00 0.00 34 1019.8
20220930021313 26 132 12.9 22.5 0.00 0.00 0.00 36 1019.8
20220930020313 26 156 6.4 12.9 0.00 0.00 0.00 37 1019.7
20220930015813 26 160 9.7 12.9 0.00 0.00 0.00 37 1019.7
20220930015313 26 153 8.0 12.9 0.00 0.00 0.00 37 1019.7
20220930014813 26 157 9.7 16.1 0.00 0.00 0.00 37 1019.7
20220930014313 26 159 9.7 16.1 0.00 0.00 0.00 36 1019.6
20220930013813 26 156 9.7 16.1 0.00 0.00 0.00 36 1019.5
20220930013312 27 154 8.0 12.9 0.00 0.00 0.00 36 1019.4
20220930012812 27 161 11.3 12.9 0.00 0.00 0.00 36 1019.4
20220930012312 26 158 9.7 16.1 0.00 0.00 0.00 36 1019.4
20220930011813 26 157 9.7 16.1 0.00 0.00 0.00 36 1019.3
20220930011312 27 155 11.3 12.9 0.00 0.00 0.00 35 1019.3
20220930010813 27 169 8.0 12.9 0.00 0.00 0.00 34 1019.3
20220930005812 28 153 4.8 9.7 0.00 0.00 0.00 32 1019.2
20220930005313 28 153 1.6 3.2 0.00 0.00 0.00 32 1019.1
20220930004813 28 153 1.6 3.2 0.00 0.00 0.00 31 1019.1
20220930003312 28 153 1.6 3.2 0.00 0.00 0.00 30 1019.0
20220930002813 29 153 1.6 3.2 0.00 0.00 0.00 30 1019.1
20220930002313 29 153 1.6 8.0 0.00 0.00 0.00 30 1019.1
20220930001313 30 153 4.8 11.3 0.00 0.00 0.00 29 1019.1
20220930000314 30 161 3.2 11.3 0.00 0.00 0.00 28 1019.1
20220929234313 31 161 3.2 12.9 0.00 0.00 0.00 26 1019.1
20220929232313 31 155 8.0 22.5 0.00 0.00 0.00 25 1019.1
20220929231813 31 152 14.5 22.5 0.00 0.00 0.00 24 1019.1
20220929231312 32 166 11.3 12.9 0.00 0.00 0.00 24 1019.2
20220929225813 32 149 3.2 12.9 0.00 0.00 0.00 24 1019.3
20220929225313 32 167 3.2 12.9 0.00 0.00 0.00 24 1019.4
20220929224813 32 156 8.0 16.1 0.00 0.00 0.00 24 1019.4
20220929223812 32 138 9.7 22.5 0.00 0.00 0.00 24 1019.6
20220929223312 32 153 16.1 22.5 0.00 0.00 0.00 24 1019.5
20220929222313 32 141 11.3 20.9 0.00 0.00 0.00 23 1019.6
20220929221812 32 187 9.7 20.9 0.00 0.00 0.00 23 1019.7
20220929220812 33 161 12.9 24.1 0.00 0.00 0.00 23 1019.8
20220929220312 33 188 9.7 16.1 0.00 0.00 0.00 22 1019.8
20220929215812 33 342 3.2 11.3 0.00 0.00 0.00 23 1019.8
20220929215312 32 275 3.2 22.5 0.00 0.00 0.00 24 1019.9
20220929214313 32 191 20.9 29.0 0.00 0.00 0.00 23 1019.9
20220929213312 32 161 6.4 22.5 0.00 0.00 0.00 23 1020.0
20220929210813 33 166 8.0 20.9 0.00 0.00 0.00 23 1020.2
20220929210313 33 167 12.9 20.9 0.00 0.00 0.00 22 1020.2
20220929205812 33 314 8.0 19.3 0.00 0.00 0.00 23 1020.3
20220929204812 33 196 9.7 22.5 0.00 0.00 0.00 23 1020.4
20220929204312 33 139 4.8 12.9 0.00 0.00 0.00 23 1020.5
20220929203313 32 122 3.2 19.3 0.00 0.00 0.00 23 1020.7
20220929202812 32 151 8.0 19.3 0.00 0.00 0.00 23 1020.8
20220929202312 33 159 8.0 19.3 0.00 0.00 0.00 23 1020.9
20220929201813 33 160 4.8 19.3 0.00 0.00 0.00 23 1021.0
20220929201313 33 105 4.8 20.9 0.00 0.00 0.00 23 1021.1
20220929200813 32 103 8.0 20.9 0.00 0.00 0.00 24 1021.1
20220929193312 33 184 6.4 22.5 0.00 0.00 0.00 23 1021.9
20220929192812 32 91 3.2 19.3 0.00 0.00 0.00 23 1022.0
20220929192312 33 158 9.7 19.3 0.00 0.00 0.00 23 1022.1
20220929190812 32 326 6.4 16.1 0.00 0.00 0.00 24 1022.5
20220929190312 31 271 3.2 16.1 0.00 0.00 0.00 25 1022.6
20220929184813 32 167 11.3 22.5 0.00 0.00 0.00 25 1022.9
20220929183812 31 206 8.0 20.9 0.00 0.00 0.00 25 1023.1
20220929182812 31 260 9.7 19.3 0.00 0.00 0.00 26 1023.3
20220929182312 31 303 9.7 27.4 0.00 0.00 0.00 25 1023.4
20220929181812 31 86 9.7 27.4 0.00 0.00 0.00 26 1023.6
20220929181312 31 156 12.9 27.4 0.00 0.00 0.00 26 1023.8
20220929175813 31 161 16.1 19.3 0.00 0.00 0.00 26 1024.1
20220929175312 31 176 6.4 24.1 0.00 0.00 0.00 26 1024.1
20220929174312 32 87 1.6 11.3 0.00 0.00 0.00 26 1024.3
20220929173312 31 144 9.7 12.9 0.00 0.00 0.00 26 1024.6
20220929172313 31 307 4.8 11.3 0.00 0.00 0.00 26 1024.8
20220929171812 31 56 3.2 11.3 0.00 0.00 0.00 26 1024.9
20220929170812 30 231 4.8 12.9 0.00 0.00 0.00 27 1025.0
20220929170314 30 55 4.8 19.3 0.00 0.00 0.00 28 1025.2
20220929165812 29 95 8.0 19.3 0.00 0.00 0.00 28 1025.2
20220929164812 30 134 9.7 16.1 0.00 0.00 0.00 28 1025.4
20220929163312 29 11 6.4 22.5 0.00 0.00 0.00 29 1025.6
20220929161812 28 32 9.7 16.1 0.00 0.00 0.00 29 1025.8
20220929161312 28 53 4.8 16.1 0.00 0.00 0.00 31 1025.8
20220929155812 28 95 8.0 11.3 0.00 0.00 0.00 30 1025.9
20220929155312 28 95 4.8 11.3 0.00 0.00 0.00 31 1026.0
20220929154812 27 38 3.2 12.9 0.00 0.00 0.00 32 1026.0
20220929152812 26 78 9.7 19.3 0.00 0.00 0.00 34 1026.2
20220929152312 26 86 9.7 19.3 0.00 0.00 0.00 34 1026.2
20220929151312 25 48 9.7 19.3 0.00 0.00 0.00 35 1026.2
20220929150312 25 38 9.7 20.9 0.00 0.00 0.00 36 1026.3